This demonstration page uses our WeatherBlox Daily Observations layout. Learn more.

Left ArrowRight Arrow

34.16533, -84.80231

Hourly Observations for October 13, 2015

Temp ( °F °C ) Dew Point ( °F °C ) Humidity (%) Winds ( mph kmh ) Pressure ( in mb ) Visibility ( mi km ) Precip ( " mm )
12:53 am 00:53 Cloudy 63 17.2 56 13.3 78 78 Calm 29.79 1009 10 16 0.00 0.00
1:37 am 01:37 Cloudy with Nearby Thunderstorms 64 17.8 56 13.3 75 75 N 3 6 29.83 1010 10 16 0.00 0.00
1:45 am 01:45 Cloudy with Thunderstorms 62 16.7 58 14.4 86 86 Calm 29.83 1010 5 8 0.03 0.76
1:53 am 01:53 Cloudy with Thunderstorms 61 16.1 59 15 93 93 VRB 5 7 29.77 1008 3 5 0.07 1.78
2:06 am 02:06 Cloudy with Nearby Thunderstorms 60 15.6 59 15 96 96 Calm 29.80 1009 10 16 0.00 0.03
2:28 am 02:28 Mostly Cloudy with Thunderstorms 61 16.1 59 15 93 93 N 9 15 29.83 1010 10 16 0.00 0.03
2:50 am 02:50 Cloudy with Nearby Thunderstorms 61 16 59 15 94 94 Calm 29.83 1010 4 6 0.10 2.54
2:53 am 02:53 Cloudy with Nearby Thunderstorms 60 15.6 59 15 96 96 Calm 29.79 1009 5 8 0.11 2.79
3:07 am 03:07 Cloudy with Thunderstorms 60 15.6 59 15 96 96 Calm 29.80 1009 7 11 0.01 0.25
3:19 am 03:19 Mostly Cloudy 60 15.6 59 15 96 96 Calm 29.80 1009 10 16 0.01 0.25
3:53 am 03:53 Cloudy 60 15.6 60 15.6 100 100 Calm 29.77 1008 9 14 0.01 0.25
4:53 am 04:53 Cloudy 60 15.6 60 15.6 100 100 Calm 29.76 1008 8 13 0.01 0.25
5:53 am 05:53 Partly Cloudy with Mist and Fog 60 15.6 59 15 96 96 Calm 29.76 1008 6 10 0.00 0.00
6:53 am 06:53 Mostly Cloudy with Mist and Fog 59 15 58 14.4 96 96 Calm 29.77 1008 5 8 0.00 0.00
7:53 am 07:53 Sunny with Mist and Fog 57 13.9 57 13.9 100 100 Calm 29.80 1009 4 6 0.00 0.00
8:07 am 08:07 Sunny with Mist and Fog 58 14.4 58 14.4 100 100 Calm 29.83 1010 2 3 0.00 0.00
8:20 am 08:20 Sunny with Mist and Fog 58 14.4 58 14.4 100 100 Calm 29.83 1010 4 6 0.00 0.00
8:53 am 08:53 Sunny with Mist and Fog 61 16.1 60 15.6 97 97 Calm 29.80 1009 5 8 0.00 0.00
9:53 am 09:53 Sunny 66 18.9 62 16.7 87 87 Calm 29.82 1010 10 16 0.00 0.00
10:53 am 10:53 Mostly Sunny 69 20.6 62 16.7 78 78 Calm 29.83 1010 10 16 0.00 0.00
11:53 am 11:53 Mostly Sunny 73 22.8 62 16.7 69 69 VRB 5 7 29.83 1010 10 16 0.00 0.00
12:53 pm 12:53 Sunny 76 24.4 58 14.4 54 54 Calm 29.83 1010 10 16 0.00 0.00
1:53 pm 13:53 Sunny 77 25 56 13.3 48 48 VRB 3 6 29.80 1009 10 16 0.00 0.00
2:53 pm 14:53 Sunny 79 26.1 52 11.1 39 39 VRB 5 7 29.79 1009 10 16 0.00 0.00
3:53 pm 15:53 Sunny 79 26.1 52 11.1 39 39 Calm 29.78 1009 10 16 0.00 0.00
4:53 pm 16:53 Sunny 79 26.1 53 11.7 41 41 VRB 3 6 29.78 1009 10 16 0.00 0.00
5:53 pm 17:53 Sunny 76 24.4 51 10.6 42 42 Calm 29.79 1009 10 16 0.00 0.00
6:53 pm 18:53 Sunny 71 21.7 46 7.8 41 41 Calm 29.80 1009 10 16 0.00 0.00
7:53 pm 19:53 Clear 58 14.4 51 10.6 78 78 Calm 29.83 1010 10 16 0.00 0.00
8:53 pm 20:53 Clear 54 12.2 51 10.6 90 90 Calm 29.86 1011 10 16 0.00 0.00
9:53 pm 21:53 Clear 56 13.3 51 10.6 84 84 Calm 29.88 1012 10 16 0.00 0.00
10:53 pm 22:53 Clear 56 13.3 51 10.6 84 84 Calm 29.90 1013 10 16 0.00 0.00
11:53 pm 23:53 Clear 54 12.2 50 10 87 87 Calm 29.91 1013 10 16 0.00 0.00

Powered by AerisWeather